Simultaneous Nadir Overpasses (SNOs) Predictions

Prediction of SNOs between NOAA-20 and METOP-C Satellite Orbit:

Table of predicted SNOs for the next 14.0 days since TLE Epoch: 8/22/2020
Index Date (NOAA-20) Time (NOAA-20) Lat,Lon (NOAA-20) SZA (NOAA-20 ) Date (METOP-C) Time (METOP-C) Lat,Lon (METOP-C) SZA (METOP-C ) Distance(km) Time Diff (sec)
1 08/24/2020 10:59:33 73.35, 5.62 62.69 08/24/2020 11:00:40 73.33, 8.21 62.53 82.59 67
2 08/24/2020 11:50:15 -73.26, 173.13 117.41 08/24/2020 11:51:24 -73.19, 175.23 117.59 67.88 69
3 08/24/2020 12:40:57 73.05, -19.11 62.39 08/24/2020 12:42:08 73.00, -17.84 62.26 41.53 71
4 08/24/2020 13:31:39 -72.97, 148.40 117.70 08/24/2020 13:32:51 -72.92, 149.31 117.81 30.12 72
5 08/24/2020 14:22:21 72.76, -43.86 62.08 08/24/2020 14:23:35 72.72, -43.76 62.03 4.87 74
6 08/24/2020 15:13:04 -72.72, 123.54 117.95 08/24/2020 15:14:16 -72.74, 123.60 117.94 3.21 72
7 08/24/2020 16:03:50 72.71, -69.14 62.06 08/24/2020 16:04:57 72.70, -69.15 62.03 1.54 67
8 08/24/2020 16:54:33 -72.73, 98.15 117.92 08/24/2020 16:55:37 -72.72, 98.22 117.94 2.41 64
9 08/24/2020 17:45:19 72.72, -94.53 62.09 08/24/2020 17:46:17 72.73, -94.43 62.08 3.32 58
10 08/24/2020 18:36:02 -72.68, 72.86 117.94 08/24/2020 18:36:59 -72.70, 72.83 117.94 1.76 57
11 08/24/2020 19:26:48 72.68,-119.82 62.07 08/24/2020 19:27:39 72.71,-119.82 62.09 3.03 51
12 08/24/2020 20:17:32 -72.69, 47.47 117.91 08/24/2020 20:18:21 -72.67, 47.44 117.93 2.26 49
13 08/24/2020 21:08:18 72.69,-145.21 62.10 08/24/2020 21:09:01 72.68,-145.21 62.09 0.38 43
14 08/24/2020 21:59:02 -72.70, 22.08 117.88 08/24/2020 21:59:42 -72.70, 22.16 117.89 2.50 40
15 08/24/2020 22:49:48 72.69,-170.60 62.13 08/24/2020 22:50:23 72.66,-170.59 62.09 3.76 35
16 08/24/2020 23:40:31 -72.66, -3.20 117.90 08/24/2020 23:41:04 -72.68, -3.23 117.88 2.71 33
17 08/25/2020 00:31:17 72.65, 164.12 62.11 08/25/2020 00:31:45 72.64, 164.02 62.10 3.68 28
18 08/25/2020 01:22:01 -72.66, -28.59 117.87 08/25/2020 01:22:26 -72.66, -28.61 117.88 1.10 25
19 08/25/2020 02:12:47 72.66, 138.73 62.14 08/25/2020 02:13:06 72.66, 138.74 62.15 0.79 19
20 08/25/2020 03:03:31 -72.67, -53.98 117.83 08/25/2020 03:03:47 -72.68, -53.90 117.83 3.14 16
21 08/25/2020 03:54:17 72.66, 113.34 62.18 08/25/2020 03:54:28 72.64, 113.35 62.15 2.63 11
22 08/25/2020 04:45:01 -72.68, -79.37 117.80 08/25/2020 04:45:09 -72.66, -79.28 117.83 3.38 8
23 08/25/2020 05:35:46 72.62, 88.06 62.15 08/25/2020 05:35:50 72.62, 87.96 62.15 3.13 4
24 08/25/2020 06:26:30 -72.63,-104.65 117.83 08/25/2020 06:26:31 -72.64,-104.67 117.82 0.67 1
25 08/25/2020 07:17:16 72.63, 62.67 62.18 08/25/2020 07:17:11 72.65, 62.68 62.20 1.96 5
26 08/25/2020 08:08:00 -72.64,-130.04 117.79 08/25/2020 08:07:53 -72.61,-130.05 117.82 2.92 7
27 08/25/2020 08:58:46 72.64, 37.28 62.22 08/25/2020 08:58:33 72.62, 37.29 62.21 1.57 13
28 08/25/2020 09:49:30 -72.65,-155.43 117.76 08/25/2020 09:49:14 -72.64,-155.34 117.77 3.19 16
29 08/25/2020 10:40:15 72.59, 11.99 62.19 08/25/2020 10:39:55 72.60, 11.91 62.21 2.96 20
30 08/25/2020 11:30:59 -72.60, 179.28 117.78 08/25/2020 11:30:36 -72.62, 179.28 117.77 1.69 23
31 08/25/2020 12:21:45 72.60, -13.40 62.23 08/25/2020 12:21:16 72.63, -13.38 62.26 3.13 29
32 08/25/2020 13:12:29 -72.61, 153.89 117.75 08/25/2020 13:11:58 -72.60, 153.89 117.76 1.67 31
33 08/25/2020 14:03:15 72.61, -38.79 62.26 08/25/2020 14:02:38 72.60, -38.76 62.26 0.84 37
34 08/25/2020 14:53:59 -72.62, 128.50 117.72 08/25/2020 14:53:19 -72.63, 128.61 117.71 3.48 40
35 08/25/2020 15:44:44 72.56, -64.07 62.23 08/25/2020 15:44:00 72.58, -64.15 62.26 3.22 44
36 08/25/2020 16:35:28 -72.58, 103.22 117.74 08/25/2020 16:34:41 -72.60, 103.22 117.71 2.91 47
37 08/25/2020 17:26:14 72.57, -89.46 62.27 08/25/2020 17:25:22 72.56, -89.54 62.27 2.90 52
38 08/25/2020 18:16:58 -72.58, 77.83 117.71 08/25/2020 18:16:03 -72.58, 77.83 117.70 0.49 55
39 08/25/2020 19:07:44 72.58,-114.85 62.30 08/25/2020 19:06:43 72.59,-114.82 62.32 1.31 61
40 08/25/2020 19:58:27 -72.54, 52.54 117.73 08/25/2020 19:57:25 -72.56, 52.45 117.70 3.62 62
41 08/25/2020 20:49:14 72.59,-140.24 62.33 08/25/2020 20:48:05 72.56,-140.21 62.32 2.85 69
42 08/25/2020 21:39:57 -72.55, 27.15 117.70 08/25/2020 21:38:47 -72.53, 27.06 117.70 3.37 70
43 08/25/2020 22:30:42 72.49,-165.43 62.25 08/25/2020 22:29:28 72.49,-165.70 62.28 9.09 74
44 08/25/2020 23:21:24 -72.40, 2.07 117.84 08/25/2020 23:20:11 -72.41, 1.47 117.78 20.02 73
45 08/26/2020 00:12:06 72.19, 169.79 61.95 08/26/2020 00:10:55 72.21, 168.41 62.05 46.82 71
46 08/26/2020 01:02:48 -72.10, -22.72 118.13 08/26/2020 01:01:38 -72.13, -24.41 118.01 57.61 70
47 08/26/2020 01:53:30 71.89, 144.99 61.65 08/26/2020 01:52:23 71.88, 142.44 61.78 87.96 67
48 08/26/2020 02:44:12 -71.80, -47.53 118.43 08/26/2020 02:43:06 -71.80, -50.37 118.27 98.50 66
